Texas Center One Loft Race - Training Toss 9

Station: Spring Branch Soccer - T Race

Distance: 11 Miles

Release: 14-Nov-2017 09:05

Weather Release: Mostly Cloudy    Arrival: Cloudy

Wind at Release: SE @ 10     Wind at Arrival: SE @ 10

Temp at Release: 70°    Temp at Arrival: 73°

Lofts: 64

Birds: 147

Clocked: 143

Released 1 crate at a time 8 mins apart - very humid
Drops Pos Breeder Pigeon Name Color Sex Ent Arrival Speed To Win Eligible
1 Morningside Racing Loft - TX 91094-AU17-MSRL BB H 1 09:09:27.56 4341.456 00:00:00 Missing
2 Dekeratry Loft - TX 7479-AU17-HOT BB H 1 09:24:54.61 972.368 00:15:27 Yes
3 Daehn/Miele - FL 0248-AU17-NWFI 1633 X Bnz GRZ H 1 09:46:11.75 469.950 00:36:44 Missing
4 Ledet-Gutrz - LA 17250-AU17-LEGU BB H 1 09:53:00.62 403.247 00:43:33 Yes
5 T T N Loft - MN 0747-AU17-TTN BB H 1 09:53:23.26 400.102 00:43:56 Yes
6 Clear Springs Loft - FL 17075-AU17-WARD BC H 1 09:53:30.20 399.148 00:44:03 Missing
7 Schmueckle Loft - TX 0177-AU17-SAL BC H 1 09:53:32.64 398.813 00:44:05 Missing
8 Sterling Loft - TX 34866-AU17-AA BB H 1 09:53:33.23 398.733 00:44:06 Missing
9 Welt Loft - TX 10458-MX17-ACEJ BB H 1 09:53:34.57 398.549 00:44:07 Yes
10 Lyons Loft - TX 1214-AU17-TXHC BB C 1 09:53:35.04 398.485 00:44:07 Yes
11 Quest Syndicate - TX 16084-AU17-QUES DC H 1 09:53:39.04 397.939 00:44:11 Missing
12 Kevin Mc Grew - TX 0595-AU17-TEXA BB H 1 09:53:40.42 397.751 00:44:13 Missing
13 R & S Loft Of Tx - TX 0846-AU17-RSLF BBWF H 1 09:54:05.53 394.360 00:44:38 Yes
14 Sarrett Racing Pigeons - TX 7019-AU17-PPH Wolverine 2 BBWF H 1 10:01:16.71 344.003 00:51:49 Missing
15 Dakota Loft Syndicate - MN 0836-AU17-DAKO BC C 1 10:01:17.21 343.953 00:51:50 Yes
16 Q-Ba Family Loft - TX 0376-AU17-SAIN BB C 1 10:01:18.51 343.820 00:51:51 Yes
17 J & S Loft - TX 0206-AU17-VITA BBWF H 1 10:04:02.24 327.928 00:54:35 Missing
18 Hollywood Lou Loft - FL 0091-AU17-HOLL BB C 1 10:13:12.85 283.812 01:03:45 Missing
19 Terrace Loft - NJ 0570-AU17-ATS BC H 1 10:14:05.20 280.228 01:04:38 Missing
20 Si Se Puede Loft - TX 32243-AU17-AA BB C 1 10:14:08.56 280.001 01:04:41 Missing
21 Morningside Racing Loft - TX 91080-AU17-MSRL BB H 2 10:25:47.27 239.640 01:16:20 Missing
22 James Hazek - OH 4022-IF17-IHC BBWF H 1 10:25:51.04 239.454 01:16:23 Yes
23 Comejo Loft - TX 0672-AU17-SAL BB H 1 10:42:31.55 198.512 01:33:04 Missing
24 Nanez Family Lofts - WI 4712-AU17-NANE BBWF H 1 10:42:35.55 198.376 01:33:08 Missing
25 Arundus Loft - TX 14377-AU17-ARPU BC H 1 10:42:36.01 198.360 01:33:08 Missing
26 Si Se Puede Loft - TX 32230-AU17-AA BC H 2 11:01:45.86 165.804 01:52:18 Lost
27 Zapopan-Palomar-Ayon Loft - TX 18794-MX17-ACCD BC H 1 11:03:25.19 163.486 01:53:58 Missing
28 Si Se Puede Loft - TX 32242-AU17-AA BB H 3 11:03:30.39 163.367 01:54:03 Missing
29 Jonas Racing - TX 0669-AU17-SAL BBWF H 1 11:03:33.29 163.300 01:54:06 Yes
30 Zapopan-Palomar-Ayon Loft - TX 0882-AU17-SAL BBSP H 2 11:03:34.43 163.274 01:54:07 Yes
31 Twins Loft - TX 5974-AU17-AA BB H 1 11:03:35.90 163.240 01:54:08 Missing
32 Flyball Loft - TX 14958-AU17-ARPU BC H 1 11:03:36.41 163.228 01:54:09 Yes
33 Sbtx Racing Pigeon Loft - TX 0333-AU17-SBTX BC H 1 11:03:38.56 163.179 01:54:11 Yes
34 Shieh Family Loft - TX 17636-AU17-WIN BB H 1 11:03:46.63 162.994 01:54:19 Yes
35 Kin Yung Loft - TX 1787-AU17-KHY BBSP C 1 11:03:51.13 162.891 01:54:24 Yes
36 Shieh Family Loft - TX 17633-AU17-WIN BC H 2 11:03:52.29 162.865 01:54:25 Yes
37 Q-Ba Family Loft - TX 0422-AU17-SAIN BCWF C 2 11:03:56.43 162.770 01:54:29 Yes
37 Muenster Loft - TX 0011-AU17-SAL BB H 1 11:03:56.47 162.770 01:54:29 Missing
39 Daehn/Miele - FL 0250-AU17-NWFI 973 X 424 BB H 2 11:03:58.77 162.717 01:54:31 Yes
40 Crazy Als Lofts - CO 5098-AU17-CRAZ BB H 1 11:04:02.73 162.627 01:54:35 Yes
41 Nanez Family Lofts - WI 4711-AU17-NANE BBWF H 2 11:04:02.87 162.624 01:54:35 Yes
42 Shieh Family Loft - TX 17635-AU17-WIN BC H 3 11:04:07.69 162.514 01:54:40 Missing
43 71st Airborne Loft - TX 1173-AU17-DALL DCWF C 1 11:04:41.20 161.756 01:55:14 Missing
44 Sarrett Racing Pigeons - TX 7015-AU17-PPH Turbo BB H 2 11:04:52.77 161.496 01:55:25 Missing
45 Morningside Racing Loft - TX 91090-AU17-MSRL BB C 3 11:05:00.51 161.322 01:55:33 Yes
46 Texas Outlaws - NC 4145-AU17-IHC BC H 1 11:07:20.42 158.247 01:57:53 Missing
47 Jonas Racing - TX 0673-AU17-SAL BB H 2 11:07:22.12 158.210 01:57:55 Missing
48 Southern Legacy Loft - TX 0442-AU17-SLL BC H 1 11:07:30.82 158.023 01:58:03 Missing
49 Si Se Puede Loft - TX 32233-AU17-AA BC H 4 11:07:33.71 157.961 01:58:06 Yes
50 Sterling Loft - TX 34868-AU17-AA BBWF H 2 11:07:36.94 157.892 01:58:09 Missing
51 Barbara Ann Loft - TX 1033-AU17-TXHC GRZ H 1 11:07:53.14 157.545 01:58:26 Yes
52 Shieh Family Loft - TX 17632-AU17-WIN BC H 4 11:07:56.10 157.482 01:58:29 Missing
53 Lyons Loft - TX 1211-AU17-TXHC BB C 2 11:08:00.50 157.388 01:58:33 Yes
54 Nanez Family Lofts - WI 4694-AU17-NANE BB H 3 11:08:14.71 157.085 01:58:47 Missing
55 Sad - TX 0360-AU17-TXHC BB H 1 11:08:24.04 156.887 01:58:56 Missing
55 Dakota Loft Syndicate - MN 0806-AU17-DAKO DC H 2 11:08:24.06 156.887 01:58:56 Yes
57 Twins Loft - TX 5969-AU17-AA BB H 2 11:08:27.81 156.807 01:59:00 Missing
58 Medina Loft - TX 0193-AU17-JJME BC C 1 11:08:28.82 156.786 01:59:01 Yes
59 Palomar Loft - TX 1703-AU17-TEXA BB H 1 11:08:32.32 156.712 01:59:05 Missing
60 Dekeratry Loft - TX 7481-AU17-HOT BB H 2 11:08:34.35 156.669 01:59:07 Missing
61 Barbara Ann Loft - TX 1039-AU17-TXHC BB H 2 11:08:48.30 156.375 01:59:21 Yes
62 Shamrock Loft - CO 7968-AU17-PPH Cinco BB H 1 11:08:52.48 156.287 01:59:25 Missing
63 Nanez Family Lofts - WI 4713-AU17-NANE DCWF H 4 11:09:24.08 155.625 01:59:57 Yes
64 Tex-Mex Loft - TX 0683-AU17-NSL Dutch BB H 1 11:09:24.22 155.622 01:59:57 Yes
65 Flyhome Loft - CA 26373-AU17-ARPU BB H 1 11:09:50.91 155.068 02:00:23 Yes
66 Texas Trio 2 - TX 1036-AU17-VPR BCWF H 1 11:10:16.12 154.548 02:00:49 Yes
67 Protege Loft - PA 0106-AU17-PROT BB H 1 11:10:41.60 154.026 02:01:14 Yes
68 Dekeratry Loft - TX 7478-AU17-HOT BB H 3 11:10:47.17 153.912 02:01:20 Missing
69 Daehn/Miele - FL 0249-AU17-NWFI 1633 X Bnz GRZ H 3 11:10:50.80 153.838 02:01:23 Missing
70 Terrace Loft - NJ 0562-AU17-ATS BB H 2 11:10:53.62 153.781 02:01:26 Missing
71 Clear Springs Loft - FL 17089-AU17-WARD SIL H 2 11:10:56.97 153.712 02:01:29 Missing
72 Horn Lofts - TX 17013-AU17-HORN GRZ H 1 11:11:15.93 153.328 02:01:48 Missing
73 Stephen Brothers - CA 0768-AU17-COM BB C 1 11:11:25.03 153.144 02:01:57 Missing
74 Texstar Loft - TX 1772-AU17-TEXS BCWF H 1 11:11:25.26 153.139 02:01:58 Yes
75 Si Se Puede Loft - TX 7369-AU17-PDP BB C 5 11:12:00.00 152.441 02:02:32 Missing
76 Q-Ba Family Loft - TX 0399-AU17-SAIN BB H 3 11:12:05.20 152.337 02:02:38 Yes
77 Sad - TX 0363-AU17-TXHC GRZ H 2 11:12:05.63 152.328 02:02:38 Missing
78 Protege Loft - PA 0097-AU17-PROT BB H 2 11:12:08.19 152.277 02:02:41 Missing
79 Dekeratry Loft - TX 7503-AU17-HOT BB H 4 11:12:08.99 152.261 02:02:41 Yes
80 Nanez Family Lofts - WI 4670-AU17-NANE BBWF H 5 11:12:22.09 152.000 02:02:55 Missing
81 Morningside Racing Loft - TX 91086-AU17-MSRL BB H 4 11:12:23.00 151.982 02:02:55 Missing
82 Kin Yung Loft - TX 1783-AU17-KHY BBWF H 2 11:12:33.72 151.769 02:03:06 Yes
83 Nanez Family Lofts - WI 4786-AU17-NANE BB H 6 11:13:07.07 151.111 02:03:40 Missing
84 Dakota Loft Syndicate - MN 0821-AU17-DAKO BC H 3 11:14:36.89 149.366 02:05:09 Yes
85 Quest Syndicate - TX 16108-AU17-QUES BBWF H 2 11:14:40.39 149.298 02:05:13 Yes
86 Twins Loft - TX 5970-AU17-AA BB H 3 11:14:57.78 148.965 02:05:30 Missing
87 Horn Lofts - TX 17020-AU17-HORN GRZ H 2 11:14:58.19 148.958 02:05:31 Yes
88 Flyhome Loft - CA 26374-AU17-ARPU BB H 2 11:15:13.64 148.663 02:05:46 Yes
89 Si Se Puede Loft - TX 32228-AU17-AA BB H 6 11:15:27.40 148.402 02:06:00 Missing
90 J & J Loft Of Tx - TX 0209-AU17-WACO BB H 1 11:15:31.16 148.331 02:06:04 Yes
91 Lyons Loft - TX 1213-AU17-TXHC BB H 3 11:15:32.27 148.309 02:06:05 Yes
92 Daehn/Miele - FL 3822-AU17-FOYS Rw X 257 DC H 4 11:15:49.56 147.983 02:06:22 Yes
93 Southern Legacy Loft - TX 2197-AU17-GJOJ BC H 2 11:16:19.86 147.414 02:06:52 Missing
94 Daehn/Miele - FL 3821-AU17-FOYS Rw X 257 DCWF H 5 11:16:36.83 147.097 02:07:09 Yes
95 Arundus Loft - TX 14380-AU17-ARPU BCWF C 2 11:17:01.76 146.634 02:07:34 Yes
96 Sad - TX 0368-AU17-TXHC BCWF H 3 11:18:15.40 145.284 02:08:48 Missing
97 Twins Loft - TX 5971-AU17-AA BC H 4 11:18:17.81 145.240 02:08:50 Yes
98 Schmueckle Loft - TX 0404-AU17-HP BB H 2 11:18:38.28 144.869 02:09:11 Missing
99 Tex-Mex Loft - TX 1197-AU17-NSL Thorpe BB H 2 11:18:47.17 144.709 02:09:20 Missing
100 Palomar Loft - TX 1706-AU17-TEXA BCWF H 2 11:18:48.12 144.691 02:09:21 Yes

There are 79 bird records

Note: These Race Results are unofficial and subject to change until verified by the Race Committee and declared final.

 

Ship Birds to:
Bill Miller
30704 Starlight Drive
Bulverde TX 78163
210-771-2947